Llagostera





Hora UTC 17:35
Temperatura 24.3 ºC
Humedad 61.0 %
Presión 1012.4 hPa
Pluja 0.0 mm
Velocidad viento 9.7 km/h
Dirección viento

Datos diarios 2020-08-03



Hora UTC (invierno +1h; verano +2h)
Temperatura (ºC) Humedad (%) Presión (hPa) Velocidad viento (km/h) Precipitación (mm)
Hora UTC Aire Humedad Presión Vel. Dir. Vel. Max Dir. Intent. máx 5 min.
00:05 22.8 56.0 1014.0 0.0 8.0 0.0
00:10 22.7 58.0 1014.1 1.6 8.0 0.0
00:15 22.7 61.0 1013.9 0.0 8.0 0.0
00:20 22.6 61.0 1014.0 1.6 8.0 0.0
00:25 22.5 60.0 1014.0 1.6 8.0 0.0
00:30 22.4 58.0 1013.9 0.0 8.0 0.0
00:35 22.6 58.0 1013.9 1.6 8.0 0.0
00:40 22.7 57.0 1014.0 3.2 12.9 0.0
00:45 22.8 56.0 1013.8 4.8 12.9 0.0
00:50 22.9 56.0 1013.8 6.4 12.9 0.0
00:55 22.9 55.0 1013.7 6.4 14.5 0.0
01:00 22.9 56.0 1013.6 6.4 14.5 0.0
01:05 22.9 54.0 1013.5 4.8 14.5 0.0
01:10 22.9 56.0 1013.4 4.8 14.5 0.0
01:15 22.9 55.0 1013.2 3.2 14.5 0.0
01:20 22.9 54.0 1013.2 3.2 16.1 0.0
01:25 22.8 54.0 1013.1 4.8 16.1 0.0
01:30 22.8 54.0 1013.1 6.4 16.1 0.0
01:35 22.8 53.0 1013.1 4.8 24.1 0.0
01:40 22.8 53.0 1013.2 3.2 24.1 0.0
01:45 22.8 53.0 1013.3 1.6 24.1 0.0
01:50 22.8 55.0 1013.0 1.6 24.1 0.0
01:55 22.8 54.0 1012.9 0.0 24.1 0.0
02:00 22.7 54.0 1013.0 1.6 24.1 0.0
02:05 22.6 54.0 1013.2 3.2 24.1 0.0
02:10 22.6 53.0 1013.4 4.8 24.1 0.0
02:15 22.6 56.0 1013.4 4.8 24.1 0.0
02:20 22.5 54.0 1013.6 3.2 24.1 0.0
02:25 22.5 56.0 1013.6 3.2 24.1 0.0
02:30 22.4 55.0 1013.7 4.8 24.1 0.0
02:35 22.4 55.0 1013.9 4.8 24.1 0.0
02:40 22.3 55.0 1013.7 6.4 24.1 0.0
02:45 22.3 55.0 1013.5 8.0 24.1 0.0
02:50 22.2 55.0 1013.4 6.4 24.1 0.0
02:55 22.2 56.0 1013.3 6.4 24.1 0.0
03:00 22.1 56.0 1013.3 6.4 24.1 0.0
03:05 22.1 56.0 1013.5 6.4 24.1 0.0
03:10 21.9 56.0 1013.6 6.4 24.1 0.0
03:15 21.8 56.0 1013.7 8.0 24.1 0.0
03:20 21.8 56.0 1013.7 6.4 24.1 0.0
03:25 21.7 56.0 1013.8 3.2 24.1 0.0
03:30 21.7 58.0 1013.4 3.2 24.1 0.0
03:35 21.5 57.0 1013.4 3.2 24.1 0.0
03:40 21.4 57.0 1013.2 3.2 24.1 0.0
03:45 21.3 58.0 1013.1 3.2 24.1 0.0
03:50 21.2 57.0 1013.6 4.8 24.1 0.0
03:55 21.3 57.0 1013.6 3.2 24.1 0.0
04:00 21.3 58.0 1013.8 1.6 24.1 0.0
04:05 21.2 57.0 1014.0 1.6 24.1 0.0
04:10 21.2 59.0 1013.9 0.0 24.1 0.0
04:15 21.1 59.0 1013.7 0.0 24.1 0.0
04:20 21.0 60.0 1013.8 0.0 24.1 0.0
04:25 20.8 59.0 1013.5 0.0 24.1 0.0
04:30 20.8 59.0 1014.0 0.0 24.1 0.0
04:35 20.8 60.0 1014.1 3.2 24.1 0.0
04:40 20.7 62.0 1014.0 6.4 24.1 0.0
04:45 20.6 62.0 1014.0 4.8 24.1 0.0
04:50 20.4 65.0 1014.0 3.2 24.1 0.0
04:55 20.2 65.0 1013.8 4.8 24.1 0.0
05:00 19.9 68.0 1014.0 4.8 24.1 0.0
05:05 19.7 69.0 1013.6 3.2 24.1 0.0
05:10 19.3 70.0 1013.9 4.8 24.1 0.0
05:15 19.2 72.0 1013.8 3.2 24.1 0.0
05:20 18.9 73.0 1013.9 1.6 24.1 0.0
05:25 18.6 75.0 1013.9 1.6 24.1 0.0
05:30 18.3 75.0 1013.8 0.0 24.1 0.0
05:35 18.2 77.0 1014.0 1.6 24.1 0.0
05:40 18.0 76.0 1014.0 3.2 24.1 0.0
05:45 17.9 77.0 1014.0 3.2 24.1 0.0
05:50 18.0 78.0 1013.9 3.2 24.1 0.0
05:55 18.0 79.0 1013.9 3.2 24.1 0.0
06:00 17.9 79.0 1014.0 1.6 24.1 0.0
06:05 17.9 78.0 1014.0 3.2 24.1 0.0
06:10 17.9 78.0 1014.3 1.6 24.1 0.0
06:15 17.9 79.0 1014.2 1.6 24.1 0.0
06:20 18.1 79.0 1014.3 0.0 24.1 0.0
06:25 18.1 78.0 1014.5 1.6 24.1 0.0
06:30 18.2 79.0 1014.3 1.6 24.1 0.0
06:35 18.2 79.0 1014.2 0.0 24.1 0.0
06:40 18.2 79.0 1014.1 0.0 24.1 0.0
06:45 18.2 79.0 1014.2 0.0 24.1 0.0
06:50 18.2 78.0 1014.3 0.0 24.1 0.0
06:55 18.2 79.0 1014.1 0.0 24.1 0.0
07:00 18.3 79.0 1014.1 0.0 24.1 0.0
07:05 18.4 78.0 1014.2 0.0 24.1 0.0
07:10 18.4 75.0 1014.3 1.6 24.1 0.0
07:15 18.5 73.0 1014.4 1.6 24.1 0.0
07:20 18.7 72.0 1014.4 1.6 24.1 0.0
07:25 18.9 74.0 1014.3 1.6 24.1 0.0
07:30 19.1 73.0 1014.2 0.0 24.1 0.0
07:35 19.2 71.0 1014.4 0.0 24.1 0.0
07:40 19.6 68.0 1014.4 3.2 24.1 0.0
07:45 20.0 65.0 1014.5 4.8 24.1 0.0
07:50 20.3 64.0 1014.6 4.8 24.1 0.0
07:55 20.4 62.0 1014.6 4.8 24.1 0.0
08:00 20.7 60.0 1014.6 6.4 24.1 0.0
08:05 21.1 61.0 1014.5 6.4 24.1 0.0
08:10 21.5 60.0 1014.4 8.0 24.1 0.0
08:15 21.8 60.0 1014.5 8.0 24.1 0.0
08:20 22.2 58.0 1014.3 8.0 24.1 0.0
08:25 22.4 54.0 1014.3 11.3 24.1 0.0
08:30 22.4 54.0 1014.4 11.3 24.1 0.0
08:35 22.7 54.0 1014.4 9.7 24.1 0.0
08:40 22.9 55.0 1014.4 6.4 24.1 0.0
08:45 23.1 52.0 1014.3 6.4 24.1 0.0
08:50 23.4 52.0 1014.5 9.7 24.1 0.0
08:55 23.5 52.0 1014.4 8.0 24.1 0.0
09:00 23.6 51.0 1014.6 8.0 24.1 0.0
09:05 23.8 51.0 1014.5 4.8 24.1 0.0
09:10 24.2 50.0 1014.4 3.2 24.1 0.0
09:15 24.3 50.0 1014.4 4.8 24.1 0.0
09:20 24.5 51.0 1014.4 3.2 24.1 0.0
09:25 24.6 49.0 1014.4 3.2 24.1 0.0
09:30 24.8 49.0 1014.4 3.2 24.1 0.0
09:35 25.1 49.0 1014.4 1.6 24.1 0.0
09:40 25.5 49.0 1014.4 1.6 24.1 0.0
09:45 25.8 48.0 1014.3 3.2 24.1 0.0
09:50 26.0 47.0 1014.2 4.8 24.1 0.0
09:55 26.1 50.0 1014.2 4.8 24.1 0.0
10:00 26.1 48.0 1014.2 6.4 24.1 0.0
10:05 26.2 49.0 1014.1 3.2 24.1 0.0
10:10 26.3 51.0 1014.1 3.2 24.1 0.0
10:15 26.3 49.0 1014.0 4.8 24.1 0.0
10:20 26.6 49.0 1014.0 4.8 24.1 0.0
10:25 26.8 45.0 1014.0 4.8 24.1 0.0
10:30 26.8 47.0 1014.0 3.2 24.1 0.0
10:35 26.9 49.0 1013.9 4.8 24.1 0.0
10:40 26.9 44.0 1013.8 4.8 24.1 0.0
10:45 26.9 46.0 1013.8 3.2 24.1 0.0
10:50 27.1 49.0 1013.8 3.2 24.1 0.0
10:55 27.3 45.0 1013.7 4.8 24.1 0.0
11:00 27.6 46.0 1013.8 4.8 24.1 0.0
11:05 28.1 45.0 1013.7 6.4 24.1 0.0
11:10 28.4 44.0 1013.7 8.0 24.1 0.0
11:15 28.4 42.0 1013.7 6.4 24.1 0.0
11:20 28.2 42.0 1013.6 4.8 24.1 0.0
11:25 28.1 40.0 1013.7 4.8 24.1 0.0
11:30 27.9 42.0 1013.7 4.8 24.1 0.0
11:35 27.7 42.0 1013.7 3.2 24.1 0.0
11:40 27.7 41.0 1013.7 4.8 24.1 0.0
11:45 27.9 42.0 1013.7 4.8 24.1 0.0
11:50 28.1 43.0 1013.7 6.4 24.1 0.0
11:55 28.2 44.0 1013.5 6.4 24.1 0.0
12:00 27.9 45.0 1013.3 9.7 35.4 0.0
12:05 27.5 47.0 1013.5 14.5 35.4 0.0
12:10 27.0 48.0 1013.6 11.3 35.4 0.0
12:15 26.9 49.0 1013.5 9.7 35.4 0.0
12:20 26.8 51.0 1013.4 9.7 35.4 0.0
12:25 26.7 49.0 1013.3 9.7 35.4 0.0
12:30 26.8 50.0 1013.4 9.7 35.4 0.0
12:35 27.1 48.0 1013.2 9.7 35.4 0.0
12:40 27.0 49.0 1013.2 8.0 35.4 0.0
12:45 27.3 49.0 1013.1 9.7 35.4 0.0
12:50 27.3 48.0 1013.2 9.7 35.4 0.0
12:55 27.1 48.0 1013.1 8.0 35.4 0.0
13:00 26.9 50.0 1013.1 8.0 35.4 0.0
13:05 26.7 50.0 1013.0 8.0 35.4 0.0
13:10 26.8 49.0 1013.0 6.4 35.4 0.0
13:15 26.9 49.0 1013.0 8.0 35.4 0.0
13:20 27.3 48.0 1013.1 11.3 35.4 0.0
13:25 27.6 48.0 1013.1 11.3 35.4 0.0
13:30 27.2 45.0 1013.0 12.9 35.4 0.0
13:35 26.7 47.0 1013.0 14.5 35.4 0.0
13:40 26.3 49.0 1012.9 14.5 35.4 0.0
13:45 26.4 52.0 1012.9 12.9 35.4 0.0
13:50 26.6 52.0 1012.9 12.9 35.4 0.0
13:55 26.6 51.0 1012.8 14.5 35.4 0.0
14:00 26.4 51.0 1012.8 14.5 35.4 0.0
14:05 26.5 51.0 1012.8 12.9 35.4 0.0
14:10 26.5 51.0 1012.7 14.5 35.4 0.0
14:15 26.8 50.0 1012.8 14.5 35.4 0.0
14:20 26.7 52.0 1012.7 12.9 35.4 0.0
14:25 26.6 52.0 1012.7 16.1 35.4 0.0
14:30 26.3 53.0 1012.7 17.7 35.4 0.0
14:35 26.1 52.0 1012.7 14.5 35.4 0.0
14:40 26.2 52.0 1012.7 12.9 35.4 0.0
14:45 26.3 53.0 1012.7 12.9 35.4 0.0
14:50 26.4 52.0 1012.7 12.9 35.4 0.0
14:55 26.4 52.0 1012.7 12.9 35.4 0.0
15:00 26.4 52.0 1012.8 14.5 35.4 0.0
15:05 26.3 52.0 1012.7 14.5 35.4 0.0
15:10 25.8 53.0 1012.7 14.5 35.4 0.0
15:15 25.5 53.0 1012.6 16.1 35.4 0.0
15:20 25.2 55.0 1012.5 12.9 35.4 0.0
15:25 25.2 56.0 1012.4 11.3 35.4 0.0
15:30 25.5 55.0 1012.4 9.7 35.4 0.0
15:35 25.9 55.0 1012.4 9.7 35.4 0.0
15:40 26.1 53.0 1012.4 9.7 35.4 0.0
15:45 26.1 54.0 1012.4 11.3 35.4 0.0
15:50 26.1 53.0 1012.4 12.9 35.4 0.0
15:55 26.0 54.0 1012.4 12.9 35.4 0.0
16:00 25.9 54.0 1012.5 11.3 35.4 0.0
16:05 25.8 54.0 1012.4 11.3 35.4 0.0
16:10 25.7 54.0 1012.5 9.7 35.4 0.0
16:15 25.8 55.0 1012.5 8.0 35.4 0.0
16:20 25.9 55.0 1012.6 9.7 35.4 0.0
16:25 25.9 55.0 1012.5 9.7 35.4 0.0
16:30 25.9 55.0 1012.6 8.0 35.4 0.0
16:35 25.9 54.0 1012.5 8.0 35.4 0.0
16:40 25.9 55.0 1012.6 8.0 35.4 0.0
16:45 25.8 55.0 1012.4 6.4 35.4 0.0
16:50 25.6 56.0 1012.5 8.0 35.4 0.0
16:55 25.3 57.0 1012.7 8.0 35.4 0.0
17:00 25.2 58.0 1012.5 8.0 35.4 0.0
17:05 25.1 58.0 1012.5 6.4 35.4 0.0
17:10 25.1 58.0 1012.5 8.0 35.4 0.0
17:15 25.3 59.0 1012.4 8.0 35.4 0.0
17:20 25.2 58.0 1012.3 8.0 35.4 0.0
17:25 24.8 59.0 1012.4 8.0 35.4 0.0
17:30 24.6 60.0 1012.5 9.7 35.4 0.0
17:35 24.3 61.0 1012.4 9.7 35.4 0.0
Máxima 28.4 79.0 1014.6 17.7 35.4 0.0
Mínima 17.8 40.0 1012.3
Total 0.0